Year,Month,Day,Hour,Minute,Value (Times are PST for windgust in km/hr)
2008,10,05,00,00,9.60
2008,10,05,00,01,8.10
2008,10,05,00,02,6.40
2008,10,05,00,03,6.40
2008,10,05,00,04,9.60
2008,10,05,00,05,14.50
2008,10,05,00,06,8.10
2008,10,05,00,07,19.30
2008,10,05,00,08,17.70
2008,10,05,00,09,8.10
2008,10,05,00,10,6.40
2008,10,05,00,11,9.60
2008,10,05,00,12,8.10
2008,10,05,00,13,12.90
2008,10,05,00,14,8.10
2008,10,05,00,15,6.40
2008,10,05,00,16,8.10
2008,10,05,00,17,6.40
2008,10,05,00,18,8.10
2008,10,05,00,19,8.10
2008,10,05,00,20,11.30
2008,10,05,00,21,11.30
2008,10,05,00,22,9.60
2008,10,05,00,23,6.40
2008,10,05,00,24,6.40
2008,10,05,00,25,8.10
2008,10,05,00,26,8.10
2008,10,05,00,27,6.40
2008,10,05,00,28,9.60
2008,10,05,00,29,6.40
2008,10,05,00,30,4.80
2008,10,05,00,31,16.10
2008,10,05,00,32,11.30
2008,10,05,00,33,9.60
2008,10,05,00,34,6.40
2008,10,05,00,35,9.60
2008,10,05,00,36,11.30
2008,10,05,00,37,11.30
2008,10,05,00,38,6.40
2008,10,05,00,39,6.40
2008,10,05,00,40,8.10
2008,10,05,00,41,14.50
2008,10,05,00,42,6.40
2008,10,05,00,43,6.40
2008,10,05,00,44,8.10
2008,10,05,00,45,11.30
2008,10,05,00,46,19.30
2008,10,05,00,47,8.10
2008,10,05,00,48,12.90
2008,10,05,00,49,16.10
2008,10,05,00,50,14.50
2008,10,05,00,51,6.40
2008,10,05,00,52,8.10
2008,10,05,00,53,9.60
2008,10,05,00,54,16.10
2008,10,05,00,55,16.10
2008,10,05,00,56,19.30
2008,10,05,00,57,16.10
2008,10,05,00,58,9.60
2008,10,05,00,59,8.10
2008,10,05,01,00,9.60
2008,10,05,01,01,9.60
2008,10,05,01,02,11.30
2008,10,05,01,03,11.30
2008,10,05,01,04,11.30
2008,10,05,01,05,16.10
2008,10,05,01,06,16.10
2008,10,05,01,07,8.10
2008,10,05,01,08,14.50
2008,10,05,01,09,9.60
2008,10,05,01,10,11.30
2008,10,05,01,11,11.30
2008,10,05,01,12,11.30
2008,10,05,01,13,9.60
2008,10,05,01,14,14.50
2008,10,05,01,15,16.10
2008,10,05,01,16,8.10
2008,10,05,01,17,9.60
2008,10,05,01,18,11.30
2008,10,05,01,19,22.50
2008,10,05,01,20,22.50
2008,10,05,01,21,12.90
2008,10,05,01,22,11.30
2008,10,05,01,23,11.30
2008,10,05,01,24,11.30
2008,10,05,01,25,9.60
2008,10,05,01,26,16.10
2008,10,05,01,27,16.10
2008,10,05,01,28,11.30
2008,10,05,01,29,9.60
2008,10,05,01,30,9.60
2008,10,05,01,31,8.10
2008,10,05,01,32,12.90
2008,10,05,01,33,14.50
2008,10,05,01,34,16.10
2008,10,05,01,35,19.30
2008,10,05,01,36,11.30
2008,10,05,01,37,11.30
2008,10,05,01,38,11.30
2008,10,05,01,39,11.30
2008,10,05,01,40,9.60
2008,10,05,01,41,8.10
2008,10,05,01,42,8.10
2008,10,05,01,43,14.50
2008,10,05,01,44,17.70
2008,10,05,01,45,9.60
2008,10,05,01,46,11.30
2008,10,05,01,47,16.10
2008,10,05,01,48,6.40
2008,10,05,01,49,8.10
2008,10,05,01,50,9.60
2008,10,05,01,51,16.10
2008,10,05,01,52,9.60
2008,10,05,01,53,19.30
2008,10,05,01,54,9.60
2008,10,05,01,55,9.60
2008,10,05,01,56,9.60
2008,10,05,01,57,9.60
2008,10,05,01,58,11.30
2008,10,05,01,59,11.30
2008,10,05,02,00,17.70
2008,10,05,02,01,9.60
2008,10,05,02,02,9.60
2008,10,05,02,03,16.10
2008,10,05,02,04,11.30
2008,10,05,02,05,19.30
2008,10,05,02,06,8.10
2008,10,05,02,07,16.10
2008,10,05,02,08,14.50
2008,10,05,02,09,11.30
2008,10,05,02,10,8.10
2008,10,05,02,11,8.10
2008,10,05,02,12,6.40
2008,10,05,02,13,9.60
2008,10,05,02,14,8.10
2008,10,05,02,15,11.30
2008,10,05,02,16,9.60
2008,10,05,02,17,8.10
2008,10,05,02,18,14.50
2008,10,05,02,19,12.90
2008,10,05,02,20,8.10
2008,10,05,02,21,8.10
2008,10,05,02,22,8.10
2008,10,05,02,23,4.80
2008,10,05,02,24,6.40
2008,10,05,02,25,6.40
2008,10,05,02,26,4.80
2008,10,05,02,27,9.60
2008,10,05,02,28,4.80
2008,10,05,02,29,6.40
2008,10,05,02,30,6.40
2008,10,05,02,31,6.40
2008,10,05,02,32,6.40
2008,10,05,02,33,4.80
2008,10,05,02,34,4.80
2008,10,05,02,35,6.40
2008,10,05,02,36,4.80
2008,10,05,02,37,4.80
2008,10,05,02,38,3.20
2008,10,05,02,39,8.10
2008,10,05,02,40,8.10
2008,10,05,02,41,6.40
2008,10,05,02,42,4.80
2008,10,05,02,43,6.40
2008,10,05,02,44,6.40
2008,10,05,02,45,9.60
2008,10,05,02,46,9.60
2008,10,05,02,47,6.40
2008,10,05,02,48,4.80
2008,10,05,02,49,8.10
2008,10,05,02,50,8.10
2008,10,05,02,51,8.10
2008,10,05,02,52,8.10
2008,10,05,02,53,8.10
2008,10,05,02,54,8.10
2008,10,05,02,55,8.10
2008,10,05,02,56,8.10
2008,10,05,02,57,9.60
2008,10,05,02,58,11.30
2008,10,05,02,59,6.40
2008,10,05,03,00,8.10
2008,10,05,03,01,9.60
2008,10,05,03,02,8.10
2008,10,05,03,03,8.10
2008,10,05,03,04,8.10
2008,10,05,03,05,8.10
2008,10,05,03,06,4.80
2008,10,05,03,07,3.20
2008,10,05,03,08,9.60
2008,10,05,03,09,9.60
2008,10,05,03,10,4.80
2008,10,05,03,11,6.40
2008,10,05,03,12,4.80
2008,10,05,03,13,3.20
2008,10,05,03,14,3.20
2008,10,05,03,15,1.60
2008,10,05,03,16,6.40
2008,10,05,03,17,9.60
2008,10,05,03,18,4.80
2008,10,05,03,19,4.80
2008,10,05,03,20,4.80
2008,10,05,03,21,9.60
2008,10,05,03,22,8.10
2008,10,05,03,23,9.60
2008,10,05,03,24,6.40
2008,10,05,03,25,9.60
2008,10,05,03,26,9.60
2008,10,05,03,27,4.80
2008,10,05,03,28,9.60
2008,10,05,03,29,11.30
2008,10,05,03,30,11.30
2008,10,05,03,31,4.80
2008,10,05,03,32,11.30
2008,10,05,03,33,8.10
2008,10,05,03,34,9.60
2008,10,05,03,35,9.60
2008,10,05,03,36,9.60
2008,10,05,03,37,6.40
2008,10,05,03,38,4.80
2008,10,05,03,39,11.30
2008,10,05,03,40,8.10
2008,10,05,03,41,16.10
2008,10,05,03,42,16.10
2008,10,05,03,43,6.40
2008,10,05,03,44,11.30
2008,10,05,03,45,8.10
2008,10,05,03,46,6.40
2008,10,05,03,47,17.70
2008,10,05,03,48,16.10
2008,10,05,03,49,9.60
2008,10,05,03,50,11.30
2008,10,05,03,51,9.60
2008,10,05,03,52,17.70
2008,10,05,03,53,16.10
2008,10,05,03,54,8.10
2008,10,05,03,55,9.60
2008,10,05,03,56,12.90
2008,10,05,03,57,8.10
2008,10,05,03,58,8.10
2008,10,05,03,59,11.30
2008,10,05,04,00,4.80
2008,10,05,04,01,4.80
2008,10,05,04,02,8.10
2008,10,05,04,03,9.60
2008,10,05,04,04,16.10
2008,10,05,04,05,14.50
2008,10,05,04,06,6.40
2008,10,05,04,07,6.40
2008,10,05,04,08,4.80
2008,10,05,04,09,8.10
2008,10,05,04,10,9.60
2008,10,05,04,11,8.10
2008,10,05,04,12,8.10
2008,10,05,04,13,11.30
2008,10,05,04,14,3.20
2008,10,05,04,15,11.30
2008,10,05,04,16,6.40
2008,10,05,04,17,16.10
2008,10,05,04,18,9.60
2008,10,05,04,19,4.80
2008,10,05,04,20,4.80
2008,10,05,04,21,4.80
2008,10,05,04,22,3.20
2008,10,05,04,23,4.80
2008,10,05,04,24,8.10
2008,10,05,04,25,8.10
2008,10,05,04,26,6.40
2008,10,05,04,27,4.80
2008,10,05,04,28,3.20
2008,10,05,04,29,4.80
2008,10,05,04,30,1.60
2008,10,05,04,31,0.00
2008,10,05,04,32,0.00
2008,10,05,04,33,0.00
2008,10,05,04,34,3.20
2008,10,05,04,35,1.60
2008,10,05,04,36,0.00
2008,10,05,04,37,0.00
2008,10,05,04,38,0.00
2008,10,05,04,39,0.00
2008,10,05,04,40,0.00
2008,10,05,04,41,0.00
2008,10,05,04,42,0.00
2008,10,05,04,43,0.00
2008,10,05,04,44,0.00
2008,10,05,04,45,0.00
2008,10,05,04,46,0.00
2008,10,05,04,47,0.00
2008,10,05,04,48,0.00
2008,10,05,04,49,0.00
2008,10,05,04,50,0.00
2008,10,05,04,51,0.00
2008,10,05,04,52,0.00
2008,10,05,04,53,0.00
2008,10,05,04,54,0.00
2008,10,05,04,55,0.00
2008,10,05,04,56,0.00
2008,10,05,04,57,0.00
2008,10,05,04,58,0.00
2008,10,05,04,59,0.00
2008,10,05,05,00,0.00
2008,10,05,05,01,1.60
2008,10,05,05,02,0.00
2008,10,05,05,03,0.00
2008,10,05,05,04,0.00
2008,10,05,05,05,0.00
2008,10,05,05,06,1.60
2008,10,05,05,07,0.00
2008,10,05,05,08,0.00
2008,10,05,05,09,1.60
2008,10,05,05,10,0.00
2008,10,05,05,11,0.00
2008,10,05,05,12,0.00
2008,10,05,05,13,1.60
2008,10,05,05,14,3.20
2008,10,05,05,15,4.80
2008,10,05,05,16,0.00
2008,10,05,05,17,1.60
2008,10,05,05,18,3.20
2008,10,05,05,19,3.20
2008,10,05,05,20,1.60
2008,10,05,05,21,1.60
2008,10,05,05,22,1.60
2008,10,05,05,23,3.20
2008,10,05,05,24,0.00
2008,10,05,05,25,0.00
2008,10,05,05,26,0.00
2008,10,05,05,27,4.80
2008,10,05,05,28,1.60
2008,10,05,05,29,0.00
2008,10,05,05,30,3.20
2008,10,05,05,31,0.00
2008,10,05,05,32,1.60
2008,10,05,05,33,0.00
2008,10,05,05,34,0.00
2008,10,05,05,35,0.00
2008,10,05,05,36,0.00
2008,10,05,05,37,0.00
2008,10,05,05,38,0.00
2008,10,05,05,39,0.00
2008,10,05,05,40,0.00
2008,10,05,05,41,0.00
2008,10,05,05,42,0.00
2008,10,05,05,43,0.00
2008,10,05,05,44,0.00
2008,10,05,05,45,0.00
2008,10,05,05,46,0.00
2008,10,05,05,47,0.00
2008,10,05,05,48,0.00
2008,10,05,05,49,0.00
2008,10,05,05,50,0.00
2008,10,05,05,51,0.00
2008,10,05,05,52,0.00
2008,10,05,05,53,0.00
2008,10,05,05,54,0.00
2008,10,05,05,55,0.00
2008,10,05,05,56,0.00
2008,10,05,05,57,0.00
2008,10,05,05,58,0.00
2008,10,05,05,59,0.00
2008,10,05,06,00,0.00
2008,10,05,06,01,0.00
2008,10,05,06,02,0.00
2008,10,05,06,03,0.00
2008,10,05,06,04,0.00
2008,10,05,06,05,0.00
2008,10,05,06,06,0.00
2008,10,05,06,07,0.00
2008,10,05,06,08,0.00
2008,10,05,06,09,0.00
2008,10,05,06,10,0.00
2008,10,05,06,11,0.00
2008,10,05,06,12,0.00
2008,10,05,06,13,0.00
2008,10,05,06,14,0.00
2008,10,05,06,15,0.00
2008,10,05,06,16,0.00
2008,10,05,06,17,0.00
2008,10,05,06,18,0.00
2008,10,05,06,19,0.00
2008,10,05,06,20,0.00
2008,10,05,06,21,0.00
2008,10,05,06,22,0.00
2008,10,05,06,23,0.00
2008,10,05,06,24,0.00
2008,10,05,06,25,0.00
2008,10,05,06,26,0.00
2008,10,05,06,27,0.00
2008,10,05,06,28,0.00
2008,10,05,06,29,0.00
2008,10,05,06,30,0.00
2008,10,05,06,31,0.00
2008,10,05,06,32,0.00
2008,10,05,06,33,0.00
2008,10,05,06,34,0.00
2008,10,05,06,35,0.00
2008,10,05,06,36,0.00
2008,10,05,06,37,0.00
2008,10,05,06,38,0.00
2008,10,05,06,39,0.00
2008,10,05,06,40,0.00
2008,10,05,06,41,0.00
2008,10,05,06,42,0.00
2008,10,05,06,43,0.00
2008,10,05,06,44,0.00
2008,10,05,06,45,0.00
2008,10,05,06,46,0.00
2008,10,05,06,47,0.00
2008,10,05,06,48,0.00
2008,10,05,06,49,0.00
2008,10,05,06,50,0.00
2008,10,05,06,51,0.00
2008,10,05,06,52,0.00
2008,10,05,06,53,0.00
2008,10,05,06,54,0.00
2008,10,05,06,55,0.00
2008,10,05,06,56,0.00
2008,10,05,06,57,8.10
2008,10,05,06,58,8.10
2008,10,05,06,59,4.80
2008,10,05,07,00,17.70
2008,10,05,07,01,9.60
2008,10,05,07,02,8.10
2008,10,05,07,03,9.60
2008,10,05,07,04,11.30
2008,10,05,07,05,11.30
2008,10,05,07,06,11.30
2008,10,05,07,07,11.30
2008,10,05,07,08,8.10
2008,10,05,07,09,8.10
2008,10,05,07,10,17.70
2008,10,05,07,11,9.60
2008,10,05,07,12,11.30
2008,10,05,07,13,16.10
2008,10,05,07,14,9.60
2008,10,05,07,15,6.40
2008,10,05,07,16,8.10
2008,10,05,07,17,11.30
2008,10,05,07,18,9.60
2008,10,05,07,19,9.60
2008,10,05,07,20,12.90
2008,10,05,07,21,6.40
2008,10,05,07,22,8.10
2008,10,05,07,23,11.30
2008,10,05,07,24,6.40
2008,10,05,07,25,4.80
2008,10,05,07,26,4.80
2008,10,05,07,27,6.40
2008,10,05,07,28,3.20
2008,10,05,07,29,3.20
2008,10,05,07,30,0.00
2008,10,05,07,31,0.00
2008,10,05,07,32,0.00
2008,10,05,07,33,0.00
2008,10,05,07,34,0.00
2008,10,05,07,35,0.00
2008,10,05,07,36,1.60
2008,10,05,07,37,1.60
2008,10,05,07,38,0.00
2008,10,05,07,39,1.60
2008,10,05,07,40,3.20
2008,10,05,07,41,1.60
2008,10,05,07,42,3.20
2008,10,05,07,43,3.20
2008,10,05,07,44,3.20
2008,10,05,07,45,1.60
2008,10,05,07,46,3.20
2008,10,05,07,47,3.20
2008,10,05,07,48,6.40
2008,10,05,07,49,4.80
2008,10,05,07,50,1.60
2008,10,05,07,51,6.40
2008,10,05,07,52,4.80
2008,10,05,07,53,4.80
2008,10,05,07,54,9.60
2008,10,05,07,55,3.20
2008,10,05,07,56,4.80
2008,10,05,07,57,1.60
2008,10,05,07,58,8.10
2008,10,05,07,59,6.40
2008,10,05,08,00,11.30
2008,10,05,08,01,8.10
2008,10,05,08,02,8.10
2008,10,05,08,03,4.80
2008,10,05,08,04,6.40
2008,10,05,08,05,4.80
2008,10,05,08,06,4.80
2008,10,05,08,07,8.10
2008,10,05,08,08,9.60
2008,10,05,08,09,6.40
2008,10,05,08,10,6.40
2008,10,05,08,11,8.10
2008,10,05,08,12,3.20
2008,10,05,08,13,3.20
2008,10,05,08,14,6.40
2008,10,05,08,15,6.40
2008,10,05,08,16,3.20
2008,10,05,08,17,6.40
2008,10,05,08,18,3.20
2008,10,05,08,19,4.80
2008,10,05,08,20,3.20
2008,10,05,08,21,6.40
2008,10,05,08,22,4.80
2008,10,05,08,23,4.80
2008,10,05,08,24,0.00
2008,10,05,08,25,1.60
2008,10,05,08,26,0.00
2008,10,05,08,27,1.60
2008,10,05,08,28,1.60
2008,10,05,08,29,3.20
2008,10,05,08,30,6.40
2008,10,05,08,31,4.80
2008,10,05,08,32,0.00
2008,10,05,08,33,3.20
2008,10,05,08,34,1.60
2008,10,05,08,35,0.00
2008,10,05,08,36,0.00
2008,10,05,08,37,0.00
2008,10,05,08,38,0.00
2008,10,05,08,39,0.00
2008,10,05,08,40,0.00
2008,10,05,08,41,0.00
2008,10,05,08,42,0.00
2008,10,05,08,43,0.00
2008,10,05,08,44,0.00
2008,10,05,08,45,0.00
2008,10,05,08,46,0.00
2008,10,05,08,47,0.00
2008,10,05,08,48,0.00
2008,10,05,08,49,0.00
2008,10,05,08,50,0.00
2008,10,05,08,51,0.00
2008,10,05,08,52,0.00
2008,10,05,08,53,0.00
2008,10,05,08,54,0.00
2008,10,05,08,55,0.00
2008,10,05,08,56,0.00
2008,10,05,08,57,0.00
2008,10,05,08,58,0.00
2008,10,05,08,59,0.00
2008,10,05,09,00,0.00
2008,10,05,09,01,0.00
2008,10,05,09,02,0.00
2008,10,05,09,03,0.00
2008,10,05,09,04,0.00
2008,10,05,09,05,0.00
2008,10,05,09,06,1.60
2008,10,05,09,07,0.00
2008,10,05,09,08,1.60
2008,10,05,09,09,0.00
2008,10,05,09,10,0.00
2008,10,05,09,11,0.00
2008,10,05,09,12,0.00
2008,10,05,09,13,0.00
2008,10,05,09,14,0.00
2008,10,05,09,15,0.00
2008,10,05,09,16,0.00
2008,10,05,09,17,0.00
2008,10,05,09,18,0.00
2008,10,05,09,19,0.00
2008,10,05,09,20,0.00
2008,10,05,09,21,0.00
2008,10,05,09,22,1.60
2008,10,05,09,23,0.00
2008,10,05,09,24,0.00
2008,10,05,09,25,0.00
2008,10,05,09,26,0.00
2008,10,05,09,27,0.00
2008,10,05,09,28,0.00
2008,10,05,09,29,0.00
2008,10,05,09,30,1.60
2008,10,05,09,31,0.00
2008,10,05,09,32,0.00
2008,10,05,09,33,0.00
2008,10,05,09,34,0.00
2008,10,05,09,35,0.00
2008,10,05,09,36,0.00
2008,10,05,09,37,0.00
2008,10,05,09,38,0.00
2008,10,05,09,39,0.00
2008,10,05,09,40,0.00
2008,10,05,09,41,0.00
2008,10,05,09,42,0.00
2008,10,05,09,43,0.00
2008,10,05,09,44,0.00
2008,10,05,09,45,0.00
2008,10,05,09,46,0.00
2008,10,05,09,47,0.00
2008,10,05,09,48,0.00
2008,10,05,09,49,0.00
2008,10,05,09,50,0.00
2008,10,05,09,51,0.00
2008,10,05,09,52,0.00
2008,10,05,09,53,0.00
2008,10,05,09,54,0.00
2008,10,05,09,55,0.00
2008,10,05,09,56,0.00
2008,10,05,09,57,0.00
2008,10,05,09,58,1.60
2008,10,05,09,59,1.60
2008,10,05,10,00,1.60
2008,10,05,10,01,0.00
2008,10,05,10,02,0.00
2008,10,05,10,03,1.60
2008,10,05,10,04,0.00
2008,10,05,10,05,1.60
2008,10,05,10,06,1.60
2008,10,05,10,07,0.00
2008,10,05,10,08,0.00
2008,10,05,10,09,0.00
2008,10,05,10,10,0.00
2008,10,05,10,11,0.00
2008,10,05,10,12,1.60
2008,10,05,10,13,3.20
2008,10,05,10,14,1.60
2008,10,05,10,15,1.60
2008,10,05,10,16,3.20
2008,10,05,10,17,6.40
2008,10,05,10,18,4.80
2008,10,05,10,19,4.80
2008,10,05,10,20,6.40
2008,10,05,10,21,4.80
2008,10,05,10,22,4.80
2008,10,05,10,23,4.80
2008,10,05,10,24,4.80
2008,10,05,10,25,6.40
2008,10,05,10,26,4.80
2008,10,05,10,27,3.20
2008,10,05,10,28,4.80
2008,10,05,10,29,4.80
2008,10,05,10,30,6.40
2008,10,05,10,31,6.40
2008,10,05,10,32,3.20
2008,10,05,10,33,4.80
2008,10,05,10,34,3.20
2008,10,05,10,35,1.60
2008,10,05,10,36,1.60
2008,10,05,10,37,1.60
2008,10,05,10,38,0.00
2008,10,05,10,39,3.20
2008,10,05,10,40,1.60
2008,10,05,10,41,0.00
2008,10,05,10,42,0.00
2008,10,05,10,43,0.00
2008,10,05,10,44,1.60
2008,10,05,10,45,1.60
2008,10,05,10,46,1.60
2008,10,05,10,47,0.00
2008,10,05,10,48,0.00
2008,10,05,10,49,0.00
2008,10,05,10,50,0.00
2008,10,05,10,51,0.00
2008,10,05,10,52,0.00
2008,10,05,10,53,0.00
2008,10,05,10,54,1.60
2008,10,05,10,55,0.00
2008,10,05,10,56,1.60
2008,10,05,10,57,1.60
2008,10,05,10,58,1.60
2008,10,05,10,59,3.20
2008,10,05,11,00,3.20
2008,10,05,11,01,1.60
2008,10,05,11,02,1.60
2008,10,05,11,03,4.80
2008,10,05,11,04,1.60
2008,10,05,11,05,3.20
2008,10,05,11,06,6.40
2008,10,05,11,07,4.80
2008,10,05,11,08,3.20
2008,10,05,11,09,4.80
2008,10,05,11,10,3.20
2008,10,05,11,11,4.80
2008,10,05,11,12,4.80
2008,10,05,11,13,4.80
2008,10,05,11,14,3.20
2008,10,05,11,15,1.60
2008,10,05,11,16,1.60
2008,10,05,11,17,1.60
2008,10,05,11,18,3.20
2008,10,05,11,19,0.00
2008,10,05,11,20,3.20
2008,10,05,11,21,1.60
2008,10,05,11,22,1.60
2008,10,05,11,23,3.20
2008,10,05,11,24,0.00
2008,10,05,11,25,0.00
2008,10,05,11,26,3.20
2008,10,05,11,27,3.20
2008,10,05,11,28,3.20
2008,10,05,11,29,4.80
2008,10,05,11,30,1.60
2008,10,05,11,31,1.60
2008,10,05,11,32,4.80
2008,10,05,11,33,6.40
2008,10,05,11,34,4.80
2008,10,05,11,35,8.10
2008,10,05,11,36,6.40
2008,10,05,11,37,4.80
2008,10,05,11,38,4.80
2008,10,05,11,39,6.40
2008,10,05,11,40,6.40
2008,10,05,11,41,1.60
2008,10,05,11,42,4.80
2008,10,05,11,43,3.20
2008,10,05,11,44,1.60
2008,10,05,11,45,1.60
2008,10,05,11,46,0.00
2008,10,05,11,47,0.00
2008,10,05,11,48,3.20
2008,10,05,11,49,4.80
2008,10,05,11,50,1.60
2008,10,05,11,51,0.00
2008,10,05,11,52,1.60
2008,10,05,11,53,3.20
2008,10,05,11,54,1.60
2008,10,05,11,55,3.20
2008,10,05,11,56,4.80
2008,10,05,11,57,4.80
2008,10,05,11,58,4.80
2008,10,05,11,59,6.40
2008,10,05,12,00,3.20
2008,10,05,12,01,0.00
2008,10,05,12,02,1.60
2008,10,05,12,03,4.80
2008,10,05,12,04,6.40
2008,10,05,12,05,3.20
2008,10,05,12,06,6.40
2008,10,05,12,07,6.40
2008,10,05,12,08,8.10
2008,10,05,12,09,6.40
2008,10,05,12,10,4.80
2008,10,05,12,11,9.60
2008,10,05,12,12,9.60
2008,10,05,12,13,6.40
2008,10,05,12,14,4.80
2008,10,05,12,15,8.10
2008,10,05,12,16,3.20
2008,10,05,12,17,4.80
2008,10,05,12,18,6.40
2008,10,05,12,19,4.80
2008,10,05,12,20,6.40
2008,10,05,12,21,4.80
2008,10,05,12,22,6.40
2008,10,05,12,23,4.80
2008,10,05,12,24,4.80
2008,10,05,12,25,3.20
2008,10,05,12,26,1.60
2008,10,05,12,27,4.80
2008,10,05,12,28,4.80
2008,10,05,12,29,3.20
2008,10,05,12,30,4.80
2008,10,05,12,31,4.80
2008,10,05,12,32,3.20
2008,10,05,12,33,3.20
2008,10,05,12,34,4.80
2008,10,05,12,35,4.80
2008,10,05,12,36,3.20
2008,10,05,12,37,6.40
2008,10,05,12,38,3.20
2008,10,05,12,39,4.80
2008,10,05,12,40,3.20
2008,10,05,12,41,6.40
2008,10,05,12,42,4.80
2008,10,05,12,43,8.10
2008,10,05,12,44,8.10
2008,10,05,12,45,9.60
2008,10,05,12,46,9.60
2008,10,05,12,47,6.40
2008,10,05,12,48,1.60
2008,10,05,12,49,6.40
2008,10,05,12,50,3.20
2008,10,05,12,51,6.40
2008,10,05,12,52,4.80
2008,10,05,12,53,4.80
2008,10,05,12,54,3.20
2008,10,05,12,55,4.80
2008,10,05,12,56,3.20
2008,10,05,12,57,1.60
2008,10,05,12,58,6.40
2008,10,05,12,59,3.20
2008,10,05,13,00,4.80
2008,10,05,13,01,1.60
2008,10,05,13,02,0.00
2008,10,05,13,03,3.20
2008,10,05,13,04,3.20
2008,10,05,13,05,4.80
2008,10,05,13,06,3.20
2008,10,05,13,07,1.60
2008,10,05,13,08,4.80
2008,10,05,13,09,1.60
2008,10,05,13,10,4.80
2008,10,05,13,11,4.80
2008,10,05,13,12,4.80
2008,10,05,13,13,4.80
2008,10,05,13,14,3.20
2008,10,05,13,15,1.60
2008,10,05,13,16,3.20
2008,10,05,13,17,9.60
2008,10,05,13,18,3.20
2008,10,05,13,19,1.60
2008,10,05,13,20,4.80
2008,10,05,13,21,3.20
2008,10,05,13,22,4.80
2008,10,05,13,23,1.60
2008,10,05,13,24,6.40
2008,10,05,13,25,4.80
2008,10,05,13,26,6.40
2008,10,05,13,27,1.60
2008,10,05,13,28,3.20
2008,10,05,13,29,3.20
2008,10,05,13,30,1.60
2008,10,05,13,31,3.20
2008,10,05,13,32,8.10
2008,10,05,13,33,6.40
2008,10,05,13,34,4.80
2008,10,05,13,35,6.40
2008,10,05,13,36,3.20
2008,10,05,13,37,1.60
2008,10,05,13,38,4.80
2008,10,05,13,39,6.40
2008,10,05,13,40,3.20
2008,10,05,13,41,1.60
2008,10,05,13,42,6.40
2008,10,05,13,43,8.10
2008,10,05,13,44,4.80
2008,10,05,13,45,4.80
2008,10,05,13,46,6.40
2008,10,05,13,47,3.20
2008,10,05,13,48,4.80
2008,10,05,13,49,6.40
2008,10,05,13,50,4.80
2008,10,05,13,51,6.40
2008,10,05,13,52,4.80
2008,10,05,13,53,6.40
2008,10,05,13,54,6.40
2008,10,05,13,55,4.80
2008,10,05,13,56,3.20
2008,10,05,13,57,6.40
2008,10,05,13,58,6.40
2008,10,05,13,59,6.40
2008,10,05,14,00,8.10
2008,10,05,14,01,3.20
2008,10,05,14,02,3.20
2008,10,05,14,03,9.60
2008,10,05,14,04,4.80
2008,10,05,14,05,4.80
2008,10,05,14,06,3.20
2008,10,05,14,07,1.60
2008,10,05,14,08,4.80
2008,10,05,14,09,4.80
2008,10,05,14,10,8.10
2008,10,05,14,11,6.40
2008,10,05,14,12,3.20
2008,10,05,14,13,6.40
2008,10,05,14,14,6.40
2008,10,05,14,15,6.40
2008,10,05,14,16,4.80
2008,10,05,14,17,3.20
2008,10,05,14,18,6.40
2008,10,05,14,19,4.80
2008,10,05,14,20,3.20
2008,10,05,14,21,3.20
2008,10,05,14,22,6.40
2008,10,05,14,23,6.40
2008,10,05,14,24,4.80
2008,10,05,14,25,4.80
2008,10,05,14,26,4.80
2008,10,05,14,27,4.80
2008,10,05,14,28,8.10
2008,10,05,14,29,8.10
2008,10,05,14,30,6.40
2008,10,05,14,31,6.40
2008,10,05,14,32,1.60
2008,10,05,14,33,4.80
2008,10,05,14,34,1.60
2008,10,05,14,35,6.40
2008,10,05,14,36,3.20
2008,10,05,14,37,1.60
2008,10,05,14,38,3.20
2008,10,05,14,39,3.20
2008,10,05,14,40,8.10
2008,10,05,14,41,6.40
2008,10,05,14,42,4.80
2008,10,05,14,43,3.20
2008,10,05,14,44,0.00
2008,10,05,14,45,1.60
2008,10,05,14,46,4.80
2008,10,05,14,47,3.20
2008,10,05,14,48,4.80
2008,10,05,14,49,3.20
2008,10,05,14,50,6.40
2008,10,05,14,51,6.40
2008,10,05,14,52,3.20
2008,10,05,14,53,3.20
2008,10,05,14,54,1.60
2008,10,05,14,55,4.80
2008,10,05,14,56,3.20
2008,10,05,14,57,1.60
2008,10,05,14,58,4.80
2008,10,05,14,59,3.20
2008,10,05,15,00,4.80
2008,10,05,15,01,3.20
2008,10,05,15,02,1.60
2008,10,05,15,03,1.60
2008,10,05,15,04,0.00
2008,10,05,15,05,3.20
2008,10,05,15,06,4.80
2008,10,05,15,07,4.80
2008,10,05,15,08,3.20
2008,10,05,15,09,4.80
2008,10,05,15,10,3.20
2008,10,05,15,11,6.40
2008,10,05,15,12,3.20
2008,10,05,15,13,3.20
2008,10,05,15,14,1.60
2008,10,05,15,15,1.60
2008,10,05,15,16,6.40
2008,10,05,15,17,1.60
2008,10,05,15,18,4.80
2008,10,05,15,19,1.60
2008,10,05,15,20,3.20
2008,10,05,15,21,3.20
2008,10,05,15,22,6.40
2008,10,05,15,23,3.20
2008,10,05,15,24,4.80
2008,10,05,15,25,4.80
2008,10,05,15,26,3.20
2008,10,05,15,27,4.80
2008,10,05,15,28,8.10
2008,10,05,15,29,1.60
2008,10,05,15,30,3.20
2008,10,05,15,31,1.60
2008,10,05,15,32,4.80
2008,10,05,15,33,9.60
2008,10,05,15,34,8.10
2008,10,05,15,35,4.80
2008,10,05,15,36,4.80
2008,10,05,15,37,6.40
2008,10,05,15,38,4.80
2008,10,05,15,39,4.80
2008,10,05,15,40,1.60
2008,10,05,15,41,4.80
2008,10,05,15,42,3.20
2008,10,05,15,43,1.60
2008,10,05,15,44,4.80
2008,10,05,15,45,4.80
2008,10,05,15,46,1.60
2008,10,05,15,47,1.60
2008,10,05,15,48,1.60
2008,10,05,15,49,3.20
2008,10,05,15,50,8.10
2008,10,05,15,51,6.40
2008,10,05,15,52,3.20
2008,10,05,15,53,3.20
2008,10,05,15,54,3.20
2008,10,05,15,55,1.60
2008,10,05,15,56,0.00
2008,10,05,15,57,0.00
2008,10,05,15,58,1.60
2008,10,05,15,59,0.00
2008,10,05,16,00,3.20
2008,10,05,16,01,4.80
2008,10,05,16,02,0.00
2008,10,05,16,03,3.20
2008,10,05,16,04,3.20
2008,10,05,16,05,1.60
2008,10,05,16,06,1.60
2008,10,05,16,07,1.60
2008,10,05,16,08,3.20
2008,10,05,16,09,3.20
2008,10,05,16,10,3.20
2008,10,05,16,11,3.20
2008,10,05,16,12,1.60
2008,10,05,16,13,1.60
2008,10,05,16,14,3.20
2008,10,05,16,15,3.20
2008,10,05,16,16,1.60
2008,10,05,16,17,3.20
2008,10,05,16,18,4.80
2008,10,05,16,19,3.20
2008,10,05,16,20,4.80
2008,10,05,16,21,1.60
2008,10,05,16,22,1.60
2008,10,05,16,23,1.60
2008,10,05,16,24,1.60
2008,10,05,16,25,1.60
2008,10,05,16,26,1.60
2008,10,05,16,27,1.60
2008,10,05,16,28,3.20
2008,10,05,16,29,1.60
2008,10,05,16,30,1.60
2008,10,05,16,31,0.00
2008,10,05,16,32,0.00
2008,10,05,16,33,1.60
2008,10,05,16,34,1.60
2008,10,05,16,35,0.00
2008,10,05,16,36,0.00
2008,10,05,16,37,0.00
2008,10,05,16,38,0.00
2008,10,05,16,39,1.60
2008,10,05,16,40,1.60
2008,10,05,16,41,1.60
2008,10,05,16,42,3.20
2008,10,05,16,43,1.60
2008,10,05,16,44,3.20
2008,10,05,16,45,1.60
2008,10,05,16,46,1.60
2008,10,05,16,47,3.20
2008,10,05,16,48,1.60
2008,10,05,16,49,1.60
2008,10,05,16,50,1.60
2008,10,05,16,51,0.00
2008,10,05,16,52,0.00
2008,10,05,16,53,1.60
2008,10,05,16,54,1.60
2008,10,05,16,55,1.60
2008,10,05,16,56,1.60
2008,10,05,16,57,1.60
2008,10,05,16,58,0.00
2008,10,05,16,59,0.00
2008,10,05,17,00,0.00
2008,10,05,17,01,1.60
2008,10,05,17,02,1.60
2008,10,05,17,03,1.60
2008,10,05,17,04,1.60
2008,10,05,17,05,0.00
2008,10,05,17,06,1.60
2008,10,05,17,07,1.60
2008,10,05,17,08,3.20
2008,10,05,17,09,3.20
2008,10,05,17,10,0.00
2008,10,05,17,11,0.00
2008,10,05,17,12,1.60
2008,10,05,17,13,3.20
2008,10,05,17,14,0.00
2008,10,05,17,15,0.00
2008,10,05,17,16,0.00
2008,10,05,17,17,1.60
2008,10,05,17,18,1.60
2008,10,05,17,19,0.00
2008,10,05,17,20,0.00
2008,10,05,17,21,0.00
2008,10,05,17,22,0.00
2008,10,05,17,23,0.00
2008,10,05,17,24,1.60
2008,10,05,17,25,1.60
2008,10,05,17,26,3.20
2008,10,05,17,27,1.60
2008,10,05,17,28,0.00
2008,10,05,17,29,1.60
2008,10,05,17,30,1.60
2008,10,05,17,31,1.60
2008,10,05,17,32,1.60
2008,10,05,17,33,1.60
2008,10,05,17,34,0.00
2008,10,05,17,35,0.00
2008,10,05,17,36,0.00
2008,10,05,17,37,0.00
2008,10,05,17,38,0.00
2008,10,05,17,39,0.00
2008,10,05,17,40,0.00
2008,10,05,17,41,0.00
2008,10,05,17,42,0.00
2008,10,05,17,43,0.00
2008,10,05,17,44,0.00
2008,10,05,17,45,0.00
2008,10,05,17,46,0.00
2008,10,05,17,47,0.00
2008,10,05,17,48,0.00
2008,10,05,17,49,0.00
2008,10,05,17,50,0.00
2008,10,05,17,51,0.00
2008,10,05,17,52,0.00
2008,10,05,17,53,0.00
2008,10,05,17,54,0.00
2008,10,05,17,55,0.00
2008,10,05,17,56,0.00
2008,10,05,17,57,0.00
2008,10,05,17,58,0.00
2008,10,05,17,59,0.00
2008,10,05,18,00,0.00
2008,10,05,18,01,0.00
2008,10,05,18,02,0.00